AirNav   Air Wisconsin Up To $57,000 Bonus
 
 1763 users online  

83TE K Bar Ranch Airport
Sabinal, Texas, USA

GOING TO SABINAL?


FAA INFORMATION EFFECTIVE 11 AUGUST 2022

Location

FAA Identifier: 83TE
Lat/Long: 29-29-48.8310N 099-29-38.1660W
29-29.813850N 099-29.636100W
29.4968975,-99.4939350
(estimated)
Elevation: 1208 ft. / 368 m (estimated)
Variation: 08E (1985)
From city: 10 miles N of SABINAL, TX
Time zone: UTC -5 (UTC -6 during Standard Time)
Zip code: 78881

Airport Operations

Airport use: CLOSED INDEFINITELY
Activation date: 10/1932
Control tower: no
ARTCC: HOUSTON CENTER
FSS: SAN ANGELO FLIGHT SERVICE STATION
Attendance: CONTINUOUS
Wind indicator: no
Segmented circle: no

Airport Communications

WX ASOS at HDO (18 nm SE): 119.675 (830-426-3060)

Nearby radio navigation aids

VOR radial/distance  VOR name  Freq  Var
CSIr202/29.4CENTER POINT VORTAC117.5008E

 
NDB name  Hdg/Dist  Freq  Var  ID
DEVINE300/36.135907EHHH .... .... ....
LA PRYOR020/38.922309ELKX .-.. -.- -..-

Airport Services

Parking: hangars
Airframe service: NONE
Powerplant service: NONE

Runway Information

Runway 15/33

Dimensions: 4100 x 150 ft. / 1250 x 46 m
Surface: dirt
Runway edge lights: low intensity
RUNWAY 15  RUNWAY 33
Traffic pattern: leftleft
Obstructions: treesnone

Airport Ownership and Management from official FAA records

Ownership: Privately-owned
Owner: MARY KAY KINDRED
3019 COLONY
SAN ANTONIO, TX 78230
Manager: Phone 512-966-3514
OR 512-696-5470.

Additional Remarks

E99 HGR ON E.SIDE OF RWY.
FOR CD CTC HOUSTON ARTCC AT 281-230-5622.
(ARPT STATUS) ARPT CLSD INDEFLY.

Instrument Procedures

There are no published instrument procedures at 83TE.

Some nearby airports with instrument procedures:

KHDO - South Texas Regional Airport at Hondo (18 nm SE)
KUVA - Garner Field Airport (22 nm SW)
KCVB - Castroville Municipal Airport (35 nm E)
KERV - Kerrville Municipal Airport/Louis Schreiner Field (36 nm NE)
23R - Devine Municipal Airport (36 nm SE)
 
Loc | Ops | Rwys | IFR | FBO | Links
Com | Nav | Svcs | Stats | Notes
Area around 83TE (K Bar Ranch Airport)
 
Road maps at: MapQuest Bing Google
 
Aerial photo
No photo
 
Sectional chart

 
Airport distance calculator
Flying to K Bar Ranch Airport? Find the distance to fly.

From to 83TE

Sunrise and sunset
Times for 18-Aug-2022
 Local
(UTC-5)
 Zulu
(UTC)
Morning civil twilight06:4411:44
Sunrise07:0912:09
Sunset20:1501:15
Evening civil twilight20:4001:40

Current date and time
Zulu (UTC)  18-Aug-2022 17:26:52
Local (UTC-5)  18-Aug-2022 12:26:52
 
METAR
KHDO 
19nm SE 
181651Z AUTO 05005KT 10SM CLR 33/22 A2999 RMK AO2 SLP139 T03280217
KUVA 
22nm SW 
181715Z AUTO 00000KT 10SM CLR 31/21 A3000 RMK AO2 T03140211
KCVB 
35nm E 
181659Z AUTO 00000KT 10SM CLR 33/20 A3000 RMK AO2
KERV 
36nm NE 
181715Z AUTO 26003KT 10SM SCT060 33/19 A3002 RMK AO2 T03310189
TAF
KSKF 
49nm E 
181000Z 1810/1916 VRB06KT 9999 SKC QNH2996INS TEMPO 1812/1814 BKN012 OVC035 BECMG 1814/1815 19009KT 9999 SCT050 BKN120 QNH2998INS BECMG 1823/1900 18012KT 9999 VCTS BKN035CB BKN120 BKN300 QNH2985INS TEMPO 1823/1901 VRB20G35KT 8000 -TSRA BKN035CB BKN120 OVC300 BECMG 1902/1903 04010G15KT 9999 NSW SCT040 BKN060 BKN110 BKN300 QNH2988INS BECMG 1906/1907 13009KT 9999 SCT040 BKN120 QNH2988INS BECMG 1910/1911 16006KT 9999 BKN020 BKN050 OVC110 QNH2990INS BECMG 1914/1915 19006KT 9999 BKN050 BKN110 QNH2994I
NOTAMs
Click for the latest NOTAMs
NOTAMs are issued by the DoD/FAA and will open in a separate window not controlled by AirNav.

 

 
 

Would you like to see your business listed on this page?

 If your business provides an interesting product or service to pilots, flight crews, aircraft, or users of the K Bar Ranch Airport, you should consider listing it here.  To start the listing process, click on the button below
 
Add a business
 

Other Pages about K Bar Ranch Airport

Update a link
 
Copyright © AirNav, LLC. All rights reserved. Privacy Policy  Contact